User: anonymous   Login
Location: Asheville, NC
(35.6000°N, 82.5500°W)
Time: 08:26:17
(UTC-04:00)
Language:

SO-50 - Orbit

View from above orbital plane
View from above orbital plane
View from above satellite
View from above satellite

Ground track
Ground track

The orbit data is extracted from the following two-line orbital elements,

1 27607U 02058C   18113.85296159  .00000012  00000-0  22488-4 0  9997
2 27607  64.5549 256.1133 0059068 340.7431  19.1438 14.75441457824943
Epoch (UTC): 23 April 2018 20:28:15
Eccentricity: 0.0059068
inclination: 64.5549°
perigee height: 602 km
apogee height: 685 km
right ascension of ascending node: 256.1133°
argument of perigee: 340.7431°
revolutions per day: 14.75441457
mean anomaly at epoch: 19.1438°
orbit number at epoch: 82494

The dashed part of the orbit path shows where the satellite is in the earth's shadow,  

DLR